This is the latest recevied weather packets stored in our database for station/object AJ5AG. If no packets are shown the sender has not sent any weather packets the latest 10 day(s).
| Time | Temp. | Humidity | Pressure | Rain* | Wind** | Luminosity | Snow |
|---|---|---|---|---|---|---|---|
| 1778017041 | 28.89° C | 72% | 1009.4 hPa | 0 mm | - | 109 W/m² | - |
| 1778016738 | 28.89° C | 71% | 1009.5 hPa | 0 mm | - | 145 W/m² | - |
| 1778016434 | 28.89° C | 70% | 1009.4 hPa | 0 mm | - | 132 W/m² | - |
| 1778016132 | 29.44° C | 69% | 1009.4 hPa | 0 mm | - | 133 W/m² | - |
| 1778015828 | 29.44° C | 70% | 1009.5 hPa | 0 mm | - | 198 W/m² | - |
| 1778015526 | 29.44° C | 70% | 1009.4 hPa | 0 mm | - | 151 W/m² | - |
| 1778015222 | 29.44° C | 70% | 1009.5 hPa | 0 mm | - | 167 W/m² | - |
| 1778014919 | 29.44° C | 70% | 1009.6 hPa | 0 mm | - | 94 W/m² | - |
| 1778014616 | 29.44° C | 70% | 1009.5 hPa | 0 mm | - | 174 W/m² | - |
| 1778014314 | 29.44° C | 70% | 1009.7 hPa | 0 mm | - | 165 W/m² | - |
| 1778014011 | 29.44° C | 70% | 1010 hPa | 0 mm | - | 203 W/m² | - |
| 1778013709 | 29.44° C | 69% | 1009.9 hPa | 0 mm | - | 209 W/m² | - |
| 1778013406 | 29.44° C | 69% | 1010.1 hPa | 0 mm | - | 218 W/m² | - |
| 1778013102 | 29.44° C | 71% | 1010.3 hPa | 0 mm | - | 280 W/m² | - |
| 1778012798 | 29.44° C | 70% | 1010.2 hPa | 0 mm | - | 195 W/m² | - |
| 1778012494 | 29.44° C | 69% | 1010.1 hPa | 0 mm | - | 217 W/m² | - |
| 1778012191 | 30° C | 68% | 1010.3 hPa | 0 mm | - | 164 W/m² | - |
| 1778011889 | 30° C | 68% | 1010.2 hPa | 0 mm | - | 386 W/m² | - |
| 1778011587 | 30° C | 70% | 1010.4 hPa | 0 mm | - | 766 W/m² | - |
| 1778011284 | 28.89° C | 72% | 1010.4 hPa | 0 mm | - | 923 W/m² | - |
| 1778010980 | 28.33° C | 72% | 1010.7 hPa | 0 mm | - | 290 W/m² | - |
| 1778010677 | 28.89° C | 73% | 1010.8 hPa | 0 mm | - | 204 W/m² | - |
| 1778010374 | 28.89° C | 72% | 1010.9 hPa | 0 mm | - | 253 W/m² | - |
| 1778010070 | 28.89° C | 73% | 1010.9 hPa | 0 mm | - | 314 W/m² | - |
| 1778009767 | 28.89° C | 72% | 1011 hPa | 0 mm | - | 326 W/m² | - |
* Rain latest hour (hover to see other rain measurements)
** Current wind speed in m/s (hover to see current wind gust speed)